FW4012 Weather Reports


Display with metric or nautical units.
time (UTC)temp
F
wind
direction
speed
MPH
gust
MPH
rain 1hr
in
rain 24hr
in
rain mn
in
humidity
%
barometer
mb
20260504050258 49 178 0.0 0.0 0.00 0.00 0.00 83 1015.9
20260504045738 49 178 0.0 0.0 0.00 0.00 0.00 83 1015.8
20260504045239 49 179 0.0 0.0 0.00 0.00 0.00 82 1015.7
20260504044759 49 181 0.0 0.0 0.00 0.00 0.00 82 1015.7
20260504044238 49 182 0.0 1.0 0.00 0.00 0.00 82 1015.8
20260504043738 49 182 0.0 3.0 0.00 0.00 0.00 82 1015.7
20260504043231 49 186 2.0 3.0 0.00 0.00 0.00 82 1015.7
20260504042728 49 187 1.0 3.0 0.00 0.00 0.00 82 1015.6
20260504042226 48 186 1.0 3.0 0.00 0.00 0.00 82 1015.7
20260504041725 48 186 2.0 2.0 0.00 0.00 0.00 82 1015.7
20260504041227 48 186 0.0 1.0 0.00 0.00 0.00 82 1015.8
20260504040750 48 186 0.0 1.0 0.00 0.00 0.00 82 1015.7
20260504040250 48 186 0.0 1.0 0.00 0.00 0.00 82 1015.7
20260504035749 48 186 0.0 1.0 0.00 0.00 0.00 82 1015.6
20260504035248 48 186 0.0 1.0 0.00 0.00 0.00 82 1015.6
20260504034748 48 186 0.0 0.0 0.00 0.00 0.00 82 1015.8
20260504034248 48 186 0.0 1.0 0.00 0.00 0.00 82 1015.7
20260504033739 48 186 0.0 1.0 0.00 0.00 0.00 82 1015.7
20260504033308 48 186 0.0 2.0 0.00 0.00 0.00 82 1015.5
20260504032724 48 186 0.0 2.0 0.00 0.00 0.00 82 1015.6
20260504032241 48 186 1.0 3.0 0.00 0.00 0.00 82 1015.6
20260504031733 48 187 1.0 2.0 0.00 0.00 0.00 82 1015.6
20260504031254 48 187 0.0 1.0 0.00 0.00 0.00 82 1015.7
20260504030733 48 188 1.0 3.0 0.00 0.00 0.00 81 1015.7
20260504030231 48 188 1.0 3.0 0.00 0.00 0.00 81 1015.7
20260504025738 48 191 0.0 0.0 0.00 0.00 0.00 81 1015.8
20260504025234 48 192 0.0 0.0 0.00 0.00 0.00 81 1015.8
20260504024734 48 194 0.0 0.0 0.00 0.00 0.00 81 1015.8
20260504024234 49 181 0.0 0.0 0.00 0.00 0.00 81 1015.8
20260504023734 49 180 0.0 0.0 0.00 0.00 0.00 80 1015.8
20260504023253 49 179 0.0 0.0 0.00 0.00 0.00 80 1015.8
20260504022728 49 178 0.0 0.0 0.00 0.00 0.00 80 1015.9
20260504022245 49 178 0.0 0.0 0.00 0.00 0.00 80 1015.8
20260504021724 50 178 0.0 0.0 0.00 0.00 0.00 80 1015.8
20260504021242 50 178 0.0 0.0 0.00 0.00 0.00 80 1015.8
20260504020740 50 178 0.0 0.0 0.00 0.00 0.00 80 1015.9
20260504020238 51 178 0.0 0.0 0.00 0.00 0.00 80 1015.8
20260504015806 51 177 0.0 0.0 0.00 0.00 0.00 80 1015.7
20260504015245 51 177 0.0 0.0 0.00 0.00 0.00 80 1015.8
20260504014723 51 177 0.0 0.0 0.00 0.00 0.00 80 1015.8
20260504014222 52 177 0.0 0.0 0.00 0.00 0.00 80 1015.9
20260504013759 52 177 0.0 0.0 0.00 0.00 0.00 80 1015.8
20260504013238 52 177 0.0 0.0 0.00 0.00 0.00 80 1015.9
20260504012736 53 177 0.0 0.0 0.00 0.00 0.00 80 1015.8
20260504012235 53 177 0.0 0.0 0.00 0.00 0.00 80 1015.8
20260504011735 53 177 0.0 0.0 0.00 0.00 0.00 80 1015.8
20260504011234 53 177 0.0 0.0 0.00 0.00 0.00 80 1015.8
20260504010735 53 177 0.0 0.0 0.00 0.00 0.00 80 1015.8
20260504010235 53 177 0.0 0.0 0.00 0.00 0.00 80 1015.8
20260504005744 53 177 0.0 0.0 0.00 0.00 0.00 80 1015.8
20260504005233 53 177 0.0 0.0 0.00 0.00 0.00 80 1015.8
20260504004728 53 177 0.0 0.0 0.00 0.00 0.00 81 1015.9
20260504004230 53 177 0.0 0.0 0.00 0.00 0.00 81 1016.0
20260504003730 53 177 0.0 0.0 0.00 0.00 0.00 81 1016.0
20260504003228 53 177 0.0 0.0 0.00 0.00 0.00 81 1016.2
20260504002727 53 177 0.0 0.0 0.00 0.00 0.00 81 1016.2
20260504002226 53 177 0.0 0.0 0.00 0.00 0.00 81 1016.2
20260504001724 53 177 0.0 0.0 0.00 0.00 0.00 81 1016.3
20260504001254 53 177 0.0 0.0 0.00 0.00 0.00 81 1016.4
20260504000723 53 177 0.0 0.0 0.00 0.00 0.00 81 1016.4
20260504000234 53 177 0.0 0.0 0.00 0.00 0.00 81 1016.4
20260503235732 53 177 0.0 0.0 0.00 0.00 0.00 81 1016.4
20260503235251 54 177 0.0 0.0 0.00 0.00 0.00 81 1016.5
20260503233735 54 177 0.0 0.0 0.00 0.00 0.00 81 1016.7
20260503233256 54 177 0.0 0.0 0.00 0.00 0.00 80 1016.6
20260503232728 54 177 0.0 0.0 0.00 0.00 0.00 80 1016.6
20260503232227 54 177 0.0 0.0 0.00 0.00 0.00 80 1016.7
20260503231725 54 177 0.0 0.0 0.00 0.00 0.00 80 1016.6
20260503231224 54 177 0.0 0.0 0.00 0.00 0.00 80 1016.7
20260503230725 54 177 0.0 1.0 0.00 0.00 0.00 80 1016.8
20260503230226 54 177 0.0 1.0 0.00 0.00 0.00 80 1016.8
20260503225740 54 177 0.0 1.0 0.00 0.00 0.00 79 1016.9
20260503225239 54 177 0.0 1.0 0.00 0.00 0.00 79 1016.8
20260503224739 54 177 0.0 1.0 0.00 0.00 0.00 79 1016.8
20260503224309 54 177 0.0 0.0 0.00 0.00 0.00 79 1016.7
20260503223747 54 177 0.0 0.0 0.00 0.00 0.00 79 1016.8
20260503223243 54 177 0.0 0.0 0.00 0.00 0.00 79 1016.8
20260503222812 54 177 0.0 0.0 0.00 0.00 0.00 79 1016.9
20260503222249 54 177 0.0 1.0 0.00 0.00 0.00 78 1016.8
20260503221749 54 177 0.0 1.0 0.00 0.00 0.00 78 1016.6
20260503221249 54 177 0.0 1.0 0.00 0.00 0.00 78 1016.6
20260503220727 54 177 0.0 2.0 0.00 0.00 0.00 78 1016.5
20260503220225 54 177 1.0 2.0 0.00 0.00 0.00 78 1016.5
20260503215801 55 177 0.0 1.0 0.00 0.00 0.00 77 1016.6
20260503215234 55 177 0.0 2.0 0.00 0.00 0.00 77 1016.5
20260503214733 55 177 0.0 1.0 0.00 0.00 0.00 77 1016.4
20260503214228 55 177 0.0 1.0 0.00 0.00 0.00 77 1016.5
20260503213759 55 177 0.0 1.0 0.00 0.00 0.00 77 1016.5
20260503213236 55 177 0.0 2.0 0.00 0.00 0.00 77 1016.4
20260503212736 55 177 0.0 2.0 0.00 0.00 0.00 77 1016.3
20260503212238 55 177 0.0 1.0 0.00 0.00 0.00 77 1016.4
20260503211756 55 177 0.0 1.0 0.00 0.00 0.00 76 1016.4
20260503211233 55 177 0.0 1.0 0.00 0.00 0.00 76 1016.3
20260503210732 55 177 0.0 2.0 0.00 0.00 0.00 76 1016.3
20260503210227 55 177 1.0 2.0 0.00 0.00 0.00 76 1016.3
20260503205746 55 177 0.0 0.0 0.00 0.00 0.00 76 1016.3
20260503205231 55 177 0.0 0.0 0.00 0.00 0.00 76 1016.4
20260503204733 55 177 0.0 0.0 0.00 0.00 0.00 76 1016.4
20260503204231 55 177 0.0 0.0 0.00 0.00 0.00 75 1016.4
20260503203731 56 177 0.0 0.0 0.00 0.00 0.00 75 1016.4
20260503203233 56 177 0.0 0.0 0.00 0.00 0.00 75 1016.4
20260503202733 56 177 0.0 0.0 0.00 0.00 0.00 75 1016.4
20260503202232 56 177 0.0 0.0 0.00 0.00 0.00 75 1016.3
20260503201731 56 177 0.0 0.0 0.00 0.00 0.00 74 1016.3
20260503201232 56 177 0.0 0.0 0.00 0.00 0.00 74 1016.2
20260503200727 57 177 0.0 0.0 0.00 0.00 0.00 74 1016.2
20260503200227 57 177 0.0 1.0 0.00 0.00 0.00 74 1016.1
20260503195726 57 177 0.0 1.0 0.00 0.00 0.00 74 1016.1
20260503195235 58 177 0.0 0.0 0.00 0.00 0.00 73 1016.0
20260503194736 58 177 0.0 0.0 0.00 0.00 0.00 73 1016.1
20260503194255 58 177 0.0 0.0 0.00 0.00 0.00 72 1015.9
20260503193734 59 177 0.0 0.0 0.00 0.00 0.00 71 1015.9
20260503193254 59 177 0.0 0.0 0.00 0.00 0.00 71 1015.8
20260503192731 60 177 0.0 1.0 0.00 0.00 0.00 70 1015.7
20260503192226 60 177 0.0 1.0 0.00 0.00 0.00 71 1015.8
20260503191723 60 177 0.0 1.0 0.00 0.00 0.00 70 1015.6
20260503191242 61 177 0.0 0.0 0.00 0.00 0.00 69 1015.5
20260503190740 61 177 0.0 0.0 0.00 0.00 0.00 68 1015.5
20260503190248 62 177 0.0 2.0 0.00 0.00 0.00 67 1015.5
20260503185747 62 177 0.0 2.0 0.00 0.00 0.00 67 1015.4
20260503185248 62 177 0.0 3.0 0.00 0.00 0.00 67 1015.4
20260503184748 63 177 1.0 3.0 0.00 0.00 0.00 67 1015.3
20260503184248 64 180 0.0 3.0 0.00 0.00 0.00 68 1015.3
20260503183729 64 260 0.0 0.0 0.00 0.00 0.00 67 1015.2
20260503183247 64 260 0.0 0.0 0.00 0.00 0.00 67 1015.3
20260503182727 65 260 0.0 0.0 0.00 0.00 0.00 66 1015.3
20260503182226 65 260 0.0 0.0 0.00 0.00 0.00 65 1015.3
20260503181728 65 260 0.0 0.0 0.00 0.00 0.00 63 1015.2
20260503181228 66 260 0.0 0.0 0.00 0.00 0.00 63 1015.3
20260503180746 66 260 0.0 0.0 0.00 0.00 0.00 63 1015.3
20260503180255 67 260 0.0 1.0 0.00 0.00 0.00 61 1015.3
20260503175755 67 260 0.0 1.0 0.00 0.00 0.00 60 1015.3
20260503175234 67 260 0.0 1.0 0.00 0.00 0.00 59 1015.3
20260503174733 68 260 0.0 2.0 0.00 0.00 0.00 57 1015.4
20260503174228 68 260 1.0 2.0 0.00 0.00 0.00 56 1015.2
20260503173728 68 260 1.0 2.0 0.00 0.00 0.00 55 1015.1
20260503173228 69 260 1.0 2.0 0.00 0.00 0.00 53 1015.2
20260503172727 69 260 0.0 2.0 0.00 0.00 0.00 49 1015.3
20260503172229 69 260 1.0 2.0 0.00 0.00 0.00 48 1015.4
20260503171750 69 260 1.0 2.0 0.00 0.00 0.00 49 1015.3
20260503171228 70 260 0.0 2.0 0.00 0.00 0.00 48 1015.3
20260503170728 70 260 0.0 3.0 0.00 0.00 0.00 48 1015.4
20260503170259 70 260 1.0 3.0 0.00 0.00 0.00 47 1015.3
20260503150735 71 249 3.0 5.0 0.00 0.00 0.00 43 1016.0
20260503150255 71 213 3.0 5.0 0.00 0.00 0.00 41 1016.0
20260503140237 71 189 3.0 8.0 0.00 0.00 0.00 45 1016.7
20260503131235 71 235 3.0 12.0 0.00 0.00 0.00 46 1017.1
20260503130735 72 252 2.0 9.0 0.00 0.00 0.00 45 1017.1
20260503130234 71 261 3.0 9.0 0.00 0.00 0.00 45 1017.2
20260503110734 70 126 2.0 10.0 0.00 0.00 0.00 43 1017.5
20260503110240 71 159 5.0 10.0 0.00 0.00 0.00 41 1017.5
20260503081230 66 94 1.0 4.0 0.00 0.00 0.00 59 1018.0
20260503080728 66 80 2.0 6.0 0.00 0.00 0.00 58 1018.0
20260503080227 66 118 3.0 6.0 0.00 0.00 0.00 59 1018.1
20260503072749 64 23 3.0 5.0 0.00 0.00 0.00 60 1018.2
20260503072229 64 321 3.0 8.0 0.00 0.00 0.00 60 1018.1
20260503071729 64 42 4.0 8.0 0.00 0.00 0.00 60 1018.2
20260503071231 64 30 3.0 6.0 0.00 0.00 0.00 61 1018.2
20260503070730 63 17 2.0 6.0 0.00 0.00 0.00 62 1018.2
20260503070232 63 21 3.0 6.0 0.00 0.00 0.00 62 1018.2
20260503060225 55 327 3.0 4.0 0.00 0.00 0.00 82 1018.4
20260503054735 53 321 0.0 3.0 0.00 0.00 0.00 86 1018.3
20260503054235 52 322 1.0 3.0 0.00 0.00 0.00 86 1018.3